Regional Weather Roundup
Issued by NWS

Home | Current Version | Previous Version | Text Only | Print | Product List | Glossary Off
Versions: 1 2 3 4 5 6 7 8 9 10 11 12 13 14 15 16 17 18 19 20 21 22 23 24 25 26 27 28 29 30 31 32 33 34 35 36 37 38 39 40 41 42 43 44 45 46 47 48 49 50

000
ASUS43 KFSD 060010
RWRSD

WEATHER ROUNDUP FOR SOUTH DAKOTA
NATIONAL WEATHER SERVICE SIOUX FALLS SD
700 PM CDT SUN JUL 05 2015

NOTE: "FAIR" INDICATES FEW OR NO CLOUDS BELOW 12,000 FEET WITH NO
SIGNIFICANT WEATHER AND/OR OBSTRUCTIONS TO VISIBILITY.


SDZ001>005-009-010-012>017-060100-
NORTHWEST AND NORTH CENTRAL SOUTH DAKOTA

CITY           SKY/WX    TMP DP  RH WIND       PRES   REMARKS
BUFFALO          N/A     63  55  75 N14       30.00R
FAITH            N/A     65  62  90 N17       29.95S
MOBRIDGE       LGT RAIN  72  69  90 N16       29.87R
$$

SDZ012>016-024>037-041>051-057-063-072>074-060100-
SOUTHWEST AND SOUTH CENTRAL SOUTH DAKOTA

CITY           SKY/WX    TMP DP  RH WIND       PRES   REMARKS
RAPID CTY ARPT RAIN      65  63  93 N23       29.98R FOG
PIERRE         CLOUDY    80  67  64 N32G38    29.78R
CUSTER         RAIN      60  57  89 N8        30.07R FOG
ELLSWORTH AFB  HVY RAIN  64  64 100 N18       29.99  FOG
PHILIP         CLOUDY    77  66  68 N30G40    29.81F
PINE RIDGE     CLOUDY    74  66  76 N16G25    29.89R
SPEARFISH      LGT RAIN  59  59 100 N17G23    30.09R
WINNER         MOCLDY    91  69  48 E10       29.71F HX  96
$$

SDZ004>011-016>023-039-040-060100-
NORTHEAST SOUTH DAKOTA

CITY           SKY/WX    TMP DP  RH WIND       PRES   REMARKS
ABERDEEN       MOSUNNY   82  69  64 N17G25    29.77S
WATERTOWN      MOSUNNY   85  69  58 S9        29.77S
BROOKINGS      MOSUNNY   84  72  65 S16       29.79F
SISSETON         N/A     85  72  65 N12       29.74S
$$

SDZ017-020-022-023-036>040-048>070-060100-
SOUTHEAST SOUTH DAKOTA

CITY           SKY/WX    TMP DP  RH WIND       PRES   REMARKS
SIOUX FALLS    PTSUNNY   84  72  67 S17       29.77F
HURON          PTSUNNY   87  73  62 S8        29.72S
CHAMBERLAIN    PTSUNNY   87  75  68 E6        29.73F HX  97
MITCHELL       MOSUNNY   87  74  64 S7        29.75R HX  95
YANKTON        MOSUNNY   84  73  70 SE12      29.75S
$$

ABBREVIATIONS USED IN REMARKS
   TC - TEMPERATURE IN CELSIUS
  WCI - WIND CHILL INDEX
   HX - HEAT INDEX
  VSB - VISIBILITY




USA.gov is the U.S. government's official web portal to all federal, state and local government web resources and services.